Weather History for Patuxent River, MD

Change the Weather History Date:

Sunday, November 4, 2012

  Actual Average Record
Temperature  
Mean Temperature 43 °F -  
Max Temperature 52 °F 64 °F 79 °F (1982)
Min Temperature 35 °F 47 °F 30 °F (2006)
Degree Days  
Heating Degree Days 22    
Moisture  
Dew Point 31 °F    
Average Humidity 66    
Maximum Humidity 86    
Minimum Humidity 46    
Precipitation  
Precipitation 0.00 in - - ()
Sea Level Pressure  
Sea Level Pressure 30.05 in    
Wind  
Wind Speed 8 mph (WNW)    
Max Wind Speed 16 mph    
Max Gust Speed -    
Visibility 10 miles    
Events      
Averages and records for this station are not official NWS values.
T = Trace of Precipitation, MM = Missing Value Source: NWS Daily Summary

Daily Weather History Graph

Daily Weather History Graph

Search for Another Location

Airport:

Trip Planner

Search our weather history database for the weather conditions in past years. The results will help you decide how hot, cold, wet, or windy it might be!

Date:

Astronomy

Nov. 04, 2012 Rise Set
Actual Time 6:35 AM EST 5:02 PM EST
Civil Twilight 6:07 AM EST 5:29 PM EST
Nautical Twilight 5:36 AM EST 6:01 PM EST
Astronomical Twilight 5:05 AM EST 6:32 PM EST
Moon 9:39 PM EST (11/4) 11:16 AM EST (11/4)
Length of Visible Light 11h 22m
Length of Day
10h 26m
Waning Gibbous, 72% of the Moon is Illuminated
Nov 4
Waning Gibbous
Nov 6
Last Quarter
Nov 13
New
Nov 20
First Quarter
Nov 28
Full

Hourly Weather History & Observations

Time (EST) Temp. Windchill Dew Point Humidity Pressure Visibility Wind Dir Wind Speed Gust Speed Precip Events Conditions
12:52 AM 43.0 °F 37.7 °F 30.9 °F 62% 30.08 in 10.0 mi West 9.2 mph - N/A   Clear
1:52 AM 41.0 °F 35.8 °F 30.9 °F 67% 30.08 in 10.0 mi West 8.1 mph - N/A   Clear
1:52 AM 39.9 °F 35.1 °F 30.9 °F 70% 30.07 in 10.0 mi West 6.9 mph - N/A   Clear
2:52 AM 37.9 °F 33.5 °F 30.9 °F 76% 30.06 in 10.0 mi West 5.8 mph - N/A   Clear
3:52 AM 36.0 °F 30.3 °F 30.9 °F 82% 30.06 in 10.0 mi WSW 6.9 mph - N/A   Clear
4:52 AM 39.0 °F 32.8 °F 32.0 °F 76% 30.06 in 10.0 mi NW 9.2 mph - N/A   Clear
5:52 AM 37.0 °F 32.4 °F 30.0 °F 76% 30.07 in 10.0 mi WSW 5.8 mph - N/A   Clear
6:01 AM 35.6 °F 29.9 °F 30.2 °F 81% 30.08 in 10.0 mi WSW 6.9 mph - N/A   Scattered Clouds
6:52 AM 39.0 °F 34.0 °F 30.9 °F 73% 30.08 in 10.0 mi West 6.9 mph - N/A   Scattered Clouds
7:52 AM 41.0 °F 36.4 °F 30.9 °F 67% 30.10 in 10.0 mi WSW 6.9 mph - N/A   Mostly Cloudy
8:52 AM 44.1 °F 39.5 °F 30.9 °F 60% 30.10 in 10.0 mi West 8.1 mph - N/A   Mostly Cloudy
9:52 AM 45.0 °F 40.1 °F 30.0 °F 56% 30.09 in 10.0 mi NW 9.2 mph - N/A   Mostly Cloudy
10:52 AM 46.0 °F 41.0 °F 28.9 °F 51% 30.07 in 10.0 mi WNW 10.4 mph - N/A   Mostly Cloudy
11:52 AM 46.9 °F - 30.9 °F 54% 30.05 in 10.0 mi NW 11.5 mph - N/A   Mostly Cloudy
12:52 PM 50.0 °F - 32.0 °F 50% 30.03 in 10.0 mi WNW 12.7 mph - N/A   Mostly Cloudy
1:52 PM 50.0 °F - 30.9 °F 48% 30.01 in 10.0 mi NW 9.2 mph - N/A   Scattered Clouds
2:52 PM 51.1 °F - 30.9 °F 46% 30.01 in 10.0 mi NW 11.5 mph - N/A   Scattered Clouds
3:52 PM 50.0 °F - 33.1 °F 52% 30.00 in 10.0 mi NE 5.8 mph - N/A   Scattered Clouds
4:52 PM 46.9 °F - 33.1 °F 59% 30.01 in 10.0 mi North 6.9 mph - N/A   Scattered Clouds
5:52 PM 42.1 °F - 34.0 °F 73% 30.03 in 10.0 mi Calm Calm - N/A   Scattered Clouds
6:52 PM 39.0 °F - 34.0 °F 82% 30.03 in 10.0 mi Calm Calm - N/A   Clear
7:52 PM 37.9 °F - 34.0 °F 86% 30.04 in 10.0 mi Calm Calm - N/A   Clear
8:52 PM 43.0 °F 35.4 °F 30.9 °F 62% 30.05 in 10.0 mi NNE 16.1 mph - N/A   Partly Cloudy
9:52 PM 43.0 °F 38.2 °F 30.9 °F 62% 30.05 in 10.0 mi NNE 8.1 mph - N/A   Mostly Cloudy
10:52 PM 43.0 °F 39.5 °F 33.1 °F 68% 30.05 in 10.0 mi NNE 5.8 mph - N/A   Mostly Cloudy